Location: Unspecified
(34.4950°S, 58.5160°W)
Time: 02:57:02
(UTC+00:00)

Cosmos 1655 Rocket - Pass Details

Date: 04 December 2021
Orbit: 970 x 1007 km, 83.0° (Epoch: 23 January)

Event Time Altitude Azimuth Distance (km) Brightness Sun altitude
Rises 23:36:23 0° 348° (NNW) 3,682 6.8 -8.2°
Reaches altitude 10° 23:38:55 10° 345° (NNW) 2,736 6.2 -8.6°
Maximum altitude 23:45:09 66° 263° (W) 1,069 4.5 -9.6°
Drops below altitude 10° 23:51:25 10° 180° (S) 2,747 6.9 -10.7°
Sets 23:53:58 0° 177° (S) 3,698 7.5 -11.1°
